• In Romania
  • List of Countries
  • For 7 days
  • Water Temperature
  • Satellite Maps
  • Weather Map
  • Weather Widgets
  • user-avatar
    Login

    Hourly Weather Morozha

    Today, 24 April, Tuesday

    Time Temperature Precipitation Wind Pressure Humidity
    00:00 +2°C° 0 mm 1 mps 742 mmHg 64%
    01:00 +2°C° 0 mm 1 mps 742 mmHg 65%
    02:00 +2°C° 0 mm 1 mps 741 mmHg 66%
    03:00 +1°C° 0 mm 2 mps 741 mmHg 66%
    04:00 +1°C° 0 mm 2 mps 741 mmHg 67%
    05:00 +1°C° 0 mm 2 mps 740 mmHg 68%
    06:00 +3°C° 0 mm 2 mps 740 mmHg 64%
    07:00 +4°C° 0 mm 3 mps 740 mmHg 61%
    08:00 +5°C° 0 mm 3 mps 740 mmHg 57%
    09:00 +8°C° 0 mm 3 mps 739 mmHg 56%
    10:00 +9°C° 0 mm 3 mps 739 mmHg 55%
    11:00 +10°C° 0 mm 4 mps 739 mmHg 54%
    12:00 +10°C° 0.2 mm 4 mps 738 mmHg 60%
    13:00 +10°C° 0.2 mm 4 mps 738 mmHg 66%
    14:00 +8°C° 0.2 mm 4 mps 738 mmHg 71%
    15:00 +8°C° 0.2 mm 4 mps 738 mmHg 75%
    16:00 +9°C° 0.2 mm 3 mps 737 mmHg 78%
    17:00 +8°C° 0.2 mm 3 mps 737 mmHg 82%
    18:00 +7°C° 0 mm 3 mps 737 mmHg 85%
    19:00 +7°C° 0 mm 3 mps 736 mmHg 89%
    20:00 +6°C° 0 mm 2 mps 736 mmHg 92%
    21:00 +6°C° 0.1 mm 2 mps 736 mmHg 93%
    22:00 +6°C° 0.1 mm 2 mps 736 mmHg 94%
    23:00 +6°C° 0.1 mm 2 mps 736 mmHg 95%

    Tomorrow, 25 April, Wednesday

    Time Temperature Precipitation Wind Pressure Humidity
    00:00 +6°C° 0.2 mm 2 mps 736 mmHg 95%
    01:00 +6°C° 0.2 mm 2 mps 736 mmHg 95%
    02:00 +6°C° 0.2 mm 2 mps 736 mmHg 96%
    03:00 +6°C° 0 mm 2 mps 735 mmHg 96%
    04:00 +5°C° 0 mm 2 mps 735 mmHg 95%
    05:00 +5°C° 0 mm 2 mps 735 mmHg 95%
    06:00 +4°C° 0.1 mm 3 mps 735 mmHg 92%
    07:00 +5°C° 0.1 mm 3 mps 735 mmHg 88%
    08:00 +6°C° 0.1 mm 4 mps 734 mmHg 85%
    09:00 +7°C° 0.2 mm 4 mps 734 mmHg 81%
    10:00 +8°C° 0.2 mm 4 mps 734 mmHg 77%
    11:00 +9°C° 0.2 mm 5 mps 734 mmHg 73%
    12:00 +9°C° 0.2 mm 5 mps 734 mmHg 69%
    13:00 +10°C° 0.2 mm 5 mps 734 mmHg 65%
    14:00 +10°C° 0.2 mm 5 mps 734 mmHg 61%
    15:00 +10°C° 0.1 mm 5 mps 734 mmHg 62%
    16:00 +9°C° 0.1 mm 5 mps 734 mmHg 63%
    17:00 +10°C° 0.1 mm 4 mps 734 mmHg 64%
    18:00 +8°C° 0.1 mm 4 mps 734 mmHg 71%
    19:00 +7°C° 0.1 mm 3 mps 734 mmHg 77%
    20:00 +6°C° 0.1 mm 2 mps 734 mmHg 83%
    21:00 +6°C° 0 mm 2 mps 734 mmHg 85%
    22:00 +5°C° 0 mm 2 mps 735 mmHg 87%
    23:00 +4°C° 0 mm 2 mps 735 mmHg 89%

    Day after tomorrow, 26 April, Thursday

    Time Temperature Precipitation Wind Pressure Humidity
    00:00 +4°C° 0 mm 2 mps 734 mmHg 90%
    01:00 +4°C° 0 mm 2 mps 734 mmHg 91%
    02:00 +4°C° 0 mm 2 mps 734 mmHg 92%
    03:00 +4°C° 0 mm 2 mps 734 mmHg 93%
    04:00 +4°C° 0 mm 2 mps 734 mmHg 95%
    05:00 +3°C° 0 mm 2 mps 734 mmHg 96%
    06:00 +5°C° 0 mm 2 mps 734 mmHg 89%
    07:00 +6°C° 0 mm 2 mps 734 mmHg 81%
    08:00 +8°C° 0 mm 2 mps 734 mmHg 74%
    09:00 +9°C° 0 mm 3 mps 734 mmHg 67%
    10:00 +11°C° 0 mm 3 mps 734 mmHg 59%
    11:00 +12°C° 0 mm 4 mps 734 mmHg 52%
    12:00 +12°C° 0.1 mm 4 mps 734 mmHg 49%
    13:00 +13°C° 0.1 mm 4 mps 735 mmHg 47%
    14:00 +14°C° 0.1 mm 4 mps 735 mmHg 44%
    15:00 +13°C° 0.1 mm 4 mps 735 mmHg 46%
    16:00 +13°C° 0.1 mm 4 mps 735 mmHg 48%
    17:00 +13°C° 0.1 mm 4 mps 735 mmHg 50%
    18:00 +11°C° 0.1 mm 3 mps 736 mmHg 58%
    19:00 +9°C° 0.1 mm 3 mps 736 mmHg 66%
    20:00 +8°C° 0.1 mm 2 mps 736 mmHg 75%
    21:00 +7°C° 0 mm 2 mps 737 mmHg 78%
    22:00 +7°C° 0 mm 2 mps 737 mmHg 81%
    23:00 +6°C° 0 mm 2 mps 737 mmHg 84%

    27 April, Friday

    Time Temperature Precipitation Wind Pressure Humidity
    00:00 +6°C° 0 mm 2 mps 737 mmHg 85%
    01:00 +5°C° 0 mm 2 mps 737 mmHg 87%
    02:00 +5°C° 0 mm 2 mps 737 mmHg 89%
    03:00 +5°C° 0 mm 2 mps 737 mmHg 91%
    04:00 +5°C° 0 mm 2 mps 738 mmHg 92%
    05:00 +4°C° 0 mm 2 mps 738 mmHg 94%
    06:00 +5°C° 0 mm 3 mps 738 mmHg 86%
    07:00 +7°C° 0 mm 3 mps 738 mmHg 78%
    08:00 +9°C° 0 mm 3 mps 739 mmHg 70%
    09:00 +10°C° 0.1 mm 4 mps 739 mmHg 64%
    10:00 +11°C° 0.1 mm 4 mps 739 mmHg 58%
    11:00 +12°C° 0.1 mm 5 mps 739 mmHg 52%
    12:00 +12°C° 0.2 mm 5 mps 739 mmHg 52%
    13:00 +12°C° 0.2 mm 5 mps 739 mmHg 52%
    14:00 +12°C° 0.2 mm 5 mps 740 mmHg 51%
    15:00 +12°C° 0.2 mm 5 mps 740 mmHg 53%
    16:00 +12°C° 0.2 mm 4 mps 740 mmHg 54%
    17:00 +11°C° 0.2 mm 4 mps 740 mmHg 55%
    18:00 +10°C° 0 mm 3 mps 741 mmHg 63%
    19:00 +8°C° 0 mm 3 mps 741 mmHg 71%
    20:00 +7°C° 0 mm 2 mps 742 mmHg 78%
    21:00 +6°C° 0 mm 2 mps 742 mmHg 82%
    22:00 +6°C° 0 mm 2 mps 743 mmHg 85%
    23:00 +5°C° 0 mm 2 mps 743 mmHg 88%

    28 April, Saturday

    Time Temperature Precipitation Wind Pressure Humidity
    00:00 +5°C° 0 mm 2 mps 744 mmHg 90%
    01:00 +4°C° 0 mm 2 mps 744 mmHg 92%
    02:00 +4°C° 0 mm 2 mps 744 mmHg 94%
    03:00 +3°C° 0 mm 2 mps 745 mmHg 95%
    04:00 +3°C° 0 mm 2 mps 745 mmHg 96%
    05:00 +3°C° 0 mm 2 mps 745 mmHg 97%
    06:00 +4°C° 0 mm 2 mps 746 mmHg 89%
    07:00 +6°C° 0 mm 2 mps 746 mmHg 81%
    08:00 +8°C° 0 mm 3 mps 746 mmHg 73%
    09:00 +9°C° 0 mm 3 mps 747 mmHg 65%
    10:00 +10°C° 0 mm 3 mps 747 mmHg 57%
    11:00 +11°C° 0 mm 3 mps 747 mmHg 49%
    12:00 +12°C° 0 mm 3 mps 747 mmHg 46%
    13:00 +13°C° 0 mm 3 mps 746 mmHg 42%
    14:00 +14°C° 0 mm 3 mps 746 mmHg 39%
    15:00 +14°C° 0 mm 3 mps 746 mmHg 41%
    16:00 +14°C° 0 mm 3 mps 746 mmHg 44%
    17:00 +13°C° 0 mm 3 mps 745 mmHg 46%
    18:00 +12°C° 0.2 mm 3 mps 745 mmHg 53%
    19:00 +11°C° 0.2 mm 3 mps 745 mmHg 60%
    20:00 +9°C° 0.2 mm 3 mps 745 mmHg 67%
    21:00 +9°C° 0.5 mm 3 mps 745 mmHg 72%
    22:00 +9°C° 0.5 mm 3 mps 744 mmHg 76%
    23:00 +8°C° 0.5 mm 3 mps 744 mmHg 80%

    29 April, Sunday

    Time Temperature Precipitation Wind Pressure Humidity
    00:00 +8°C° 0.3 mm 2 mps 744 mmHg 85%
    01:00 +8°C° 0.3 mm 2 mps 744 mmHg 89%
    02:00 +7°C° 0.3 mm 2 mps 744 mmHg 93%
    03:00 +7°C° 0.1 mm 2 mps 744 mmHg 94%
    04:00 +7°C° 0.1 mm 2 mps 744 mmHg 95%
    05:00 +6°C° 0.1 mm 2 mps 744 mmHg 96%
    06:00 +7°C° 0 mm 2 mps 745 mmHg 90%
    07:00 +8°C° 0 mm 2 mps 745 mmHg 84%
    08:00 +9°C° 0 mm 2 mps 745 mmHg 78%
    09:00 +10°C° 0 mm 2 mps 745 mmHg 70%
    10:00 +12°C° 0 mm 2 mps 745 mmHg 61%
    11:00 +12°C° 0 mm 3 mps 745 mmHg 52%
    12:00 +13°C° 0 mm 3 mps 745 mmHg 48%
    13:00 +13°C° 0 mm 3 mps 745 mmHg 44%
    14:00 +14°C° 0 mm 3 mps 745 mmHg 40%
    15:00 +14°C° 0 mm 3 mps 745 mmHg 41%
    16:00 +14°C° 0 mm 3 mps 745 mmHg 42%
    17:00 +14°C° 0 mm 2 mps 745 mmHg 44%
    18:00 +12°C° 0 mm 2 mps 745 mmHg 51%
    19:00 +11°C° 0 mm 1 mps 746 mmHg 59%
    20:00 +9°C° 0 mm 1 mps 746 mmHg 67%
    21:00 +8°C° 0 mm 1 mps 746 mmHg 69%
    22:00 +8°C° 0 mm 1 mps 746 mmHg 72%
    23:00 +6°C° 0 mm 0 mps 747 mmHg 74%
    Show more